Simultaneous Nadir Overpasses (SNOs) Predictions

Prediction of SNOs between NPP and METOP-C Satellite Orbit:

Table of predicted SNOs for the next 14.0 days since TLE Epoch: 5/28/2022
Index Date (NPP) Time (NPP) Lat,Lon (NPP) SZA (NPP ) Date (METOP-C) Time (METOP-C) Lat,Lon (METOP-C) SZA (METOP-C ) Distance(km) Time Diff (sec)
1 05/30/2022 15:38:32 73.37, -64.08 51.68 05/30/2022 15:39:39 73.32, -61.66 51.51 77.40 67
2 05/30/2022 16:29:14 -73.27, 103.45 128.44 05/30/2022 16:30:23 -73.22, 105.45 128.59 64.26 69
3 05/30/2022 17:19:56 73.08, -88.81 51.35 05/30/2022 17:21:07 72.99, -87.72 51.20 36.84 71
4 05/30/2022 18:10:38 -72.98, 78.72 128.77 05/30/2022 18:11:50 -72.95, 79.52 128.85 26.32 72
5 05/30/2022 19:01:20 72.78,-113.56 51.02 05/30/2022 19:02:33 72.76,-113.53 50.98 2.40 73
6 05/30/2022 19:52:04 -72.79, 53.75 128.99 05/30/2022 19:53:15 -72.77, 53.81 129.02 2.60 71
7 05/30/2022 20:42:49 72.74,-138.85 50.96 05/30/2022 20:43:55 72.74,-138.93 50.95 2.60 66
8 05/30/2022 21:33:33 -72.75, 28.46 129.04 05/30/2022 21:34:37 -72.75, 28.42 129.05 1.47 64
9 05/30/2022 22:24:19 72.75,-164.24 50.96 05/30/2022 22:25:16 72.76,-164.21 50.96 1.67 57
10 05/30/2022 23:15:03 -72.76, 3.07 129.04 05/30/2022 23:15:58 -72.77, 3.13 129.04 2.82 55
11 05/31/2022 00:05:49 72.76, 170.37 50.96 05/31/2022 00:06:38 72.74, 170.40 50.93 2.66 49
12 05/31/2022 00:56:33 -72.76, -22.32 129.04 05/31/2022 00:57:20 -72.75, -22.26 129.07 2.80 47
13 05/31/2022 01:47:18 72.72, 145.08 50.91 05/31/2022 01:48:00 72.71, 145.00 50.90 2.54 42
14 05/31/2022 02:38:02 -72.72, -47.61 129.10 05/31/2022 02:38:42 -72.72, -47.65 129.10 1.29 40
15 05/31/2022 03:28:48 72.73, 119.68 50.91 05/31/2022 03:29:21 72.74, 119.72 50.91 1.55 33
16 05/31/2022 04:19:32 -72.73, -73.01 129.10 05/31/2022 04:20:03 -72.75, -72.94 129.09 2.87 31
17 05/31/2022 05:10:17 72.74, 94.29 50.91 05/31/2022 05:10:42 72.71, 94.32 50.88 2.93 25
18 05/31/2022 06:01:01 -72.74, -98.40 129.10 05/31/2022 06:01:24 -72.72, -98.33 129.12 3.01 23
19 05/31/2022 06:51:46 72.70, 69.00 50.85 05/31/2022 06:52:04 72.69, 68.93 50.84 2.50 18
20 05/31/2022 07:42:30 -72.70,-123.69 129.15 05/31/2022 07:42:46 -72.70,-123.72 129.16 1.13 16
21 05/31/2022 08:33:16 72.71, 43.61 50.85 05/31/2022 08:33:25 72.71, 43.65 50.86 1.48 9
22 05/31/2022 09:24:00 -72.71,-149.08 129.15 05/31/2022 09:24:07 -72.72,-149.01 129.14 2.93 7
23 05/31/2022 10:14:46 72.71, 18.22 50.85 05/31/2022 10:14:47 72.69, 18.25 50.82 3.22 1
24 05/31/2022 11:05:30 -72.72,-174.47 129.15 05/31/2022 11:05:29 -72.70,-174.40 129.17 3.23 1
25 05/31/2022 11:56:15 72.67, -7.07 50.80 05/31/2022 11:56:09 72.66, -7.14 50.79 2.49 6
26 05/31/2022 12:46:59 -72.68, 160.24 129.21 05/31/2022 12:46:51 -72.67, 160.21 129.21 0.97 8
27 05/31/2022 13:37:45 72.68, -32.46 50.80 05/31/2022 13:37:30 72.69, -32.43 50.81 1.46 15
28 05/31/2022 14:28:29 -72.69, 134.85 129.21 05/31/2022 14:28:12 -72.70, 134.92 129.19 3.01 17
29 05/31/2022 15:19:14 72.64, -57.75 50.74 05/31/2022 15:18:52 72.66, -57.82 50.77 3.20 22
30 05/31/2022 16:09:59 -72.69, 109.45 129.21 05/31/2022 16:09:34 -72.67, 109.53 129.23 3.46 25
31 05/31/2022 17:00:44 72.65, -83.15 50.74 05/31/2022 17:00:14 72.64, -83.21 50.74 2.50 30
32 05/31/2022 17:51:28 -72.65, 84.16 129.26 05/31/2022 17:50:56 -72.65, 84.14 129.26 0.85 32
33 05/31/2022 18:42:14 72.66,-108.54 50.74 05/31/2022 18:41:35 72.66,-108.50 50.75 1.50 39
34 05/31/2022 19:32:58 -72.66, 58.77 129.26 05/31/2022 19:32:17 -72.68, 58.85 129.24 3.11 41
35 05/31/2022 20:23:43 72.62,-133.83 50.69 05/31/2022 20:22:57 72.64,-133.89 50.72 2.90 46
36 05/31/2022 21:14:27 -72.62, 33.48 129.32 05/31/2022 21:13:39 -72.65, 33.46 129.28 3.31 48
37 05/31/2022 22:05:13 72.63,-159.22 50.69 05/31/2022 22:04:19 72.61,-159.28 50.69 2.56 54
38 05/31/2022 22:55:57 -72.63, 8.09 129.32 05/31/2022 22:55:01 -72.62, 8.07 129.31 0.78 56
39 05/31/2022 23:46:43 72.64, 175.39 50.69 05/31/2022 23:45:40 72.64, 175.43 50.70 1.61 63
40 06/01/2022 00:37:27 -72.64, -17.30 129.32 06/01/2022 00:36:22 -72.65, -17.21 129.30 3.22 65
41 06/01/2022 01:28:12 72.59, 150.10 50.64 06/01/2022 01:27:02 72.61, 150.04 50.67 2.59 70
42 06/01/2022 02:18:56 -72.60, -42.59 129.37 06/01/2022 02:17:44 -72.63, -42.61 129.33 3.13 72
43 06/01/2022 03:09:39 72.45, 125.01 50.47 06/01/2022 03:08:26 72.48, 124.45 50.54 19.31 73
44 06/01/2022 04:00:22 -72.40, -67.58 129.59 06/01/2022 03:59:09 -72.45, -68.30 129.50 24.83 73
45 06/01/2022 04:51:03 72.15, 100.22 50.14 06/01/2022 04:49:54 72.15, 98.45 50.24 60.29 69
46 06/01/2022 05:41:46 -72.11, -92.37 129.92 06/01/2022 05:40:37 -72.12, -94.29 129.80 65.46 69
47 06/01/2022 06:32:27 71.85, 75.42 49.81 06/01/2022 06:31:21 71.87, 72.58 49.98 98.18 66



Historial Predications of SNOs between NPP and METOP-C
